User: anonymous   Login
Location: Unspecified
(0.0000°N, 0.0000°E)
Time: 18:49:06
(UTC+00:00)
Language:

CBERS 2 - Orbit

View from above orbital plane
View from above orbital plane
View from above satellite
View from above satellite

Ground track
Ground track

The orbit data is extracted from the following two-line orbital elements,

1 28057U 03049A   19085.46087730 -.00000037  00000-0  20158-5 0  9998
2 28057  98.4195  32.5085 0001784  65.8490 294.2875 14.35601967808381
Epoch (UTC): 26 March 2019 11:03:39
Eccentricity: 0.0001784
inclination: 98.4195°
perigee height: 772 km
apogee height: 774 km
right ascension of ascending node: 32.5085°
argument of perigee: 65.8490°
revolutions per day: 14.35601967
mean anomaly at epoch: 294.2875°
orbit number at epoch: 80838

The dashed part of the orbit path shows where the satellite is in the earth's shadow,  

DLR